[[{"header":{"parameterUnit":"m.s-1","parameterCategory":1,"la1":30.2991,"la2":30.254,"lo1":-89.0895,"lo2":-89.0444,"dy":0.0017,"dx":0.0017,"nx":28,"ny":28,"refTime":"2025-01-29T09:00:00:Z","depth":0,"parameterNumber":2,"parameterNumberName":"U-component_of_WINDS"},"data":[0,0,0,0,0,0,0,0,0,0,0,0,0,0,0,0,0,0,0,0,0,0,0,0,0,0,0,0,0,0,0,0,0,0,0,0,0,0,0,0,0,0,0,0,0,0,0,0,0,0,0,0,0,0,0,0,0,0,-1.743,-1.743,0,-1.743,-1.743,-1.743,-1.738,-1.7378,-1.7377,-1.7376,-1.7378,-1.7379,-1.7381,0,0,0,0,0,0,0,0,0,0,0,0,0,-1.7387,-1.7388,-1.743,-1.743,-1.743,-1.743,-1.743,-1.743,-1.738,-1.7378,-1.7377,-1.7375,-1.7378,-1.7379,-1.7381,0,0,0,0,0,0,0,0,0,0,0,0,0,-1.7398,-1.7388,-1.743,-1.7405,-1.7402,-1.743,-1.743,-1.743,-1.738,-1.7378,-1.7376,-1.7374,-1.7377,-1.7379,-1.7381,-1.7434,0,0,-1.7387,-1.7388,0,0,0,0,0,0,0,0,-1.7398,-1.74,-1.7408,-1.7406,-1.7404,-1.7403,-1.7416,-1.7431,-1.7381,-1.7389,-1.7376,-1.7373,-1.7388,-1.7389,-1.7394,-1.7434,-1.7434,-1.7387,-1.7389,-1.7389,-1.739,0,0,0,0,0,0,0,-1.7397,-1.74,-1.743,-1.7408,-1.7406,-1.7394,-1.7393,-1.7419,-1.74,-1.7388,-1.7384,-1.7385,-1.7387,-1.7392,-1.7393,-1.7434,-1.7387,-1.7389,-1.739,-1.7391,-1.7517,-1.7519,0,0,0,0,0,0,-1.7399,-1.7399,-1.743,-1.743,-1.7396,-1.7396,-1.7396,-1.7405,-1.7399,-1.7396,-1.7387,-1.7382,-1.7389,-1.7391,-1.7393,-1.7454,-1.7389,-1.7391,-1.7392,-1.7515,-1.7518,-1.752,0,0,0,0,0,0,-1.7399,-1.7403,-1.743,-1.7414,-1.7416,-1.7399,-1.741,-1.7406,-1.7411,-1.7398,-1.7395,-1.7395,-1.7388,-1.739,-1.7424,-1.7454,-1.7392,-1.7394,-1.7513,-1.7516,-1.7519,-1.7577,0,0,0,0,0,0,-1.7398,-1.7403,-1.7422,-1.7414,-1.7417,-1.746,-1.7412,-1.7408,-1.7415,-1.7409,-1.7406,-1.7403,-1.7387,-1.7421,-1.7426,-1.7455,-1.7395,-1.751,-1.7514,-1.7518,-1.7572,-1.7582,-1.759,0,0,0,0,0,-1.7396,-1.7439,-1.7423,-1.7427,-1.7441,-1.7462,-1.7463,-1.7443,-1.7417,-1.7437,-1.7429,-1.7403,-1.745,-1.7425,-1.743,-1.746,-1.7508,-1.7513,-1.7518,-1.7568,-1.758,-1.7589,0,0,0,0,0,0,-1.7451,-1.7437,-1.742,-1.7461,-1.7463,-1.7453,-1.7477,-1.7456,-1.7466,-1.746,-1.7435,-1.7435,-1.7472,-1.747,-1.7442,-1.7511,-1.7474,-1.748,-1.7511,-1.7522,-1.7531,-1.753,-1.7397,0,0,0,0,0,-1.7467,-1.7485,-1.7472,-1.751,-1.7512,-1.7494,-1.7503,-1.7487,-1.7488,-1.7489,-1.7483,-1.7486,-1.7501,-1.7511,-1.7525,-1.7572,-1.757,-1.7595,-1.7604,-1.7611,-1.7617,-1.7641,-1.7652,-1.7536,-1.7536,-1.7536,0,0,-1.7502,-1.7497,-1.7509,-1.752,-1.752,-1.7539,-1.7495,-1.7518,-1.7532,-1.7492,-1.7523,-1.7519,-1.7521,-1.7561,-1.7579,-1.756,-1.7648,-1.7617,-1.7623,-1.7625,-1.7648,-1.7658,-1.7668,-1.754,-1.7539,-1.7538,0,0,-1.7575,-1.7573,-1.7603,-1.7604,-1.7604,-1.7592,-1.76,-1.7594,-1.7589,-1.762,-1.759,-1.7607,-1.7634,-1.7636,-1.7641,-1.7715,-1.7692,-1.7721,-1.7766,-1.7791,-1.78,-1.7808,-1.7834,-1.7844,-1.7726,-1.7726,-1.7726,0,-1.7618,-1.7645,-1.7622,-1.7646,-1.7652,-1.7617,-1.7648,-1.765,-1.7655,-1.766,-1.7639,-1.7672,-1.767,-1.7711,-1.7729,-1.7734,-1.7742,-1.772,-1.78,-1.7808,-1.7815,-1.784,-1.785,-1.773,-1.7729,-1.7729,-1.7729,0,-1.7698,-1.7718,-1.7743,-1.7747,-1.7756,-1.7784,-1.7766,-1.7777,-1.7761,-1.7752,-1.7784,-1.7781,-1.7793,-1.7802,-1.7786,-1.784,-1.7828,-1.7805,-1.7767,-1.783,-1.7853,-1.7862,-1.7734,-1.7733,-1.7732,-1.7731,0,0,-1.7805,-1.7796,-1.7806,-1.7808,-1.7805,-1.782,-1.7846,-1.7858,-1.7868,-1.7873,-1.7895,-1.7918,-1.7896,-1.7901,-1.7886,-1.7907,-1.7966,-1.788,-1.788,-1.7896,-1.8026,-1.8043,-1.8055,-1.7951,-1.7953,-1.7955,-1.8025,0,-1.7875,-1.7919,-1.7899,-1.7945,-1.7963,-1.793,-1.7953,-1.7955,-1.7947,-1.7962,-1.7953,-1.797,-1.794,-1.7943,-1.7963,-1.7955,-1.7992,-1.795,-1.7972,-1.7973,-1.7972,-1.8067,-1.8086,-1.8153,-1.8034,-1.8036,-1.8037,0,-1.7963,-1.797,-1.8018,-1.8012,-1.8019,-1.804,-1.8049,-1.8063,-1.8064,-1.8057,-1.8063,-1.8043,-1.8069,-1.8033,-1.8069,-1.804,-1.8048,-1.8046,-1.8048,-1.8049,-1.8008,-1.807,-1.8174,-1.8184,-1.8051,-1.805,-1.8049,0,-1.8035,-1.8058,-1.8089,-1.8091,-1.8086,-1.8101,-1.81,-1.8099,-1.8107,-1.8115,-1.812,-1.8131,-1.8138,-1.8147,-1.8131,-1.8106,-1.8169,-1.8131,-1.8164,-1.8165,-1.8179,-1.8178,-1.8285,-1.8185,-1.8185,-1.8185,-1.8184,0,-1.8116,-1.8146,-1.8121,-1.814,-1.8174,-1.8151,-1.8185,-1.818,-1.818,-1.8198,-1.8171,-1.8189,-1.8166,-1.8182,-1.817,-1.8201,-1.8205,-1.82,-1.8196,-1.8202,-1.8203,-1.8207,-1.8201,-1.8187,-1.8187,-1.8186,-1.8186,0,-1.8202,-1.8187,-1.8218,-1.821,-1.8209,-1.8234,-1.8227,-1.8245,-1.8236,-1.8259,-1.8264,-1.8249,-1.8266,-1.8251,-1.8268,-1.826,-1.8302,-1.8292,-1.8301,-1.8298,-1.8332,-1.8329,-1.8445,-1.8459,-1.835,-1.8351,-1.8352,0,-1.8254,-1.8276,-1.8271,-1.828,-1.828,-1.8297,-1.8305,-1.8284,-1.8293,-1.8297,-1.8314,-1.8329,-1.834,-1.8369,-1.8361,-1.8374,-1.8363,-1.8403,-1.8365,-1.837,-1.8364,-1.8362,-1.8364,-1.8411,-1.8412,-1.8413,-1.8414,0,-1.8348,-1.8339,-1.8351,-1.8361,-1.8371,-1.8378,-1.8382,-1.8392,-1.8371,-1.8383,-1.84,-1.8408,-1.8425,-1.8441,-1.8451,-1.845,-1.8429,-1.8426,-1.8434,-1.844,-1.8445,-1.8442,-1.8322,-1.8423,-1.8422,-1.8422,-1.8421,-1.8421,-1.8418,-1.8436,-1.8435,-1.845,-1.8451,-1.8456,-1.8472,-1.8465,-1.8479,-1.849,-1.8477,-1.8498,-1.8499,-1.8511,-1.8512,-1.8529,-1.8512,-1.8524,-1.8527,-1.8531,-1.8535,-1.8442,-1.8531,-1.853,-1.853,-1.853,-1.853,0,-1.851,-1.8508,-1.8521,-1.8528,-1.854,-1.8518,-1.8523,-1.8534,-1.8552,-1.8555,-1.8566,-1.8586,-1.86,-1.8593,-1.8606,-1.8621,-1.8611,-1.8625,-1.8623,-1.8624,-1.8549,-1.8541,-1.8632,-1.8632,-1.8632,-1.8632,-1.8632,-1.8632,-1.8559,-1.8589,-1.8581,-1.8611,-1.8609,-1.8628,-1.8633,-1.8637,-1.8639,-1.8662,-1.8674,-1.8669,-1.8668,-1.868,-1.8693,-1.8691,-1.8697,-1.8714,-1.8708,-1.8639,-1.8629,-1.8619,-1.8611,-1.8715,-1.8716,-1.8781,-1.8781,-1.8782]},{"header":{"parameterUnit":"m.s-1","parameterCategory":1,"la1":30.2991,"la2":30.254,"lo1":-89.0895,"lo2":-89.0444,"dy":0.0017,"dx":0.0017,"nx":28,"ny":28,"refTime":"2025-01-29T09:00:00:Z","depth":0,"parameterNumber":3,"parameterNumberName":"V-component_of_WINDS"},"data":[0,0,0,0,0,0,0,0,0,0,0,0,0,0,0,0,0,0,0,0,0,0,0,0,0,0,0,0,0,0,0,0,0,0,0,0,0,0,0,0,0,0,0,0,0,0,0,0,0,0,0,0,0,0,0,0,0,0,1.0954,1.0955,0,1.1022,1.1022,1.1023,1.1044,1.1044,1.1043,1.1043,1.1112,1.1114,1.1117,0,0,0,0,0,0,0,0,0,0,0,0,0,1.0845,1.0847,1.0954,1.0955,1.0956,1.1022,1.1022,1.1023,1.1044,1.1044,1.1043,1.1043,1.1112,1.1114,1.1117,0,0,0,0,0,0,0,0,0,0,0,0,0,1.0901,1.0848,1.0954,1.0974,1.0977,1.1021,1.1022,1.1024,1.1044,1.1044,1.1043,1.1043,1.1111,1.1114,1.1117,1.1147,0,0,1.1127,1.1128,0,0,0,0,0,0,0,0,1.0897,1.0905,1.097,1.0973,1.0976,1.1024,1.1009,1.1065,1.1044,1.1019,1.1043,1.1042,1.1083,1.1089,1.1103,1.115,1.1153,1.1127,1.1129,1.1131,1.1132,0,0,0,0,0,0,0,1.0894,1.0902,1.0981,1.0971,1.0975,1.098,1.0988,1.102,1.1053,1.1021,1.1022,1.103,1.1085,1.1099,1.1104,1.1154,1.1127,1.113,1.1132,1.1133,1.1231,1.1232,0,0,0,0,0,0,1.0886,1.0898,1.0979,1.0983,1.0935,1.0983,1.0991,1.1009,1.1053,1.1059,1.103,1.1031,1.1094,1.1101,1.1107,1.1146,1.1131,1.1134,1.1136,1.1231,1.1231,1.1232,0,0,0,0,0,0,1.0884,1.0893,1.0976,1.0941,1.0952,1.0985,1.1005,1.1011,1.1025,1.106,1.1066,1.1039,1.1094,1.1102,1.1137,1.1148,1.1135,1.1138,1.123,1.1231,1.1232,1.1223,0,0,0,0,0,0,1.0881,1.0892,1.0903,1.0941,1.0954,1.1005,1.1006,1.1012,1.1031,1.1032,1.107,1.1076,1.1094,1.1132,1.114,1.1153,1.1141,1.1229,1.123,1.1231,1.1223,1.1224,1.1225,0,0,0,0,0,1.0877,1.0898,1.0904,1.0913,1.0969,1.1005,1.1013,1.1034,1.1031,1.1044,1.1066,1.1074,1.1146,1.1136,1.1145,1.1158,1.1228,1.123,1.1231,1.1222,1.1224,1.1225,0,0,0,0,0,0,1.0861,1.0903,1.091,1.0945,1.0971,1.1009,1.1025,1.1034,1.1062,1.1062,1.1087,1.1095,1.1129,1.1147,1.1135,1.119,1.1187,1.1191,1.1177,1.1179,1.118,1.1175,1.1143,0,0,0,0,0,1.0861,1.0887,1.0923,1.095,1.0963,1.0991,1.1008,1.1022,1.1051,1.1062,1.1087,1.1115,1.1144,1.1162,1.119,1.1225,1.1234,1.1239,1.124,1.1241,1.1244,1.1265,1.1268,1.1237,1.1237,1.1237,0,0,1.0862,1.0889,1.0904,1.0947,1.097,1.0997,1.1001,1.1029,1.1049,1.1066,1.1101,1.112,1.1153,1.1188,1.1205,1.1205,1.1254,1.1243,1.1243,1.1246,1.1267,1.127,1.1272,1.1238,1.1238,1.1238,0,0,1.0879,1.0901,1.0927,1.0949,1.0983,1.1002,1.1008,1.1044,1.1058,1.1093,1.1107,1.1132,1.118,1.1203,1.1222,1.1248,1.1257,1.1256,1.1262,1.1282,1.1285,1.1287,1.1298,1.1301,1.1259,1.1259,1.1259,0,1.0876,1.0917,1.0938,1.0966,1.0986,1.1002,1.1029,1.105,1.1091,1.1104,1.1103,1.1165,1.1188,1.123,1.1236,1.125,1.1259,1.1252,1.1283,1.1285,1.1288,1.1298,1.1302,1.1258,1.1259,1.1259,1.1259,0,1.0913,1.0941,1.0958,1.0998,1.1019,1.1046,1.1072,1.1091,1.1103,1.1122,1.1158,1.1187,1.1222,1.1232,1.1244,1.1276,1.1275,1.1278,1.1275,1.129,1.13,1.1304,1.1258,1.1258,1.1258,1.1258,0,0,1.0922,1.0973,1.0979,1.0998,1.1037,1.1059,1.1087,1.1121,1.1138,1.1166,1.1191,1.1232,1.1235,1.1256,1.1271,1.1288,1.1309,1.1289,1.129,1.1293,1.1347,1.1346,1.135,1.1315,1.1316,1.1316,1.1345,0,1.0944,1.0995,1.1015,1.1057,1.1084,1.11,1.1125,1.1152,1.1171,1.1197,1.1217,1.1247,1.1248,1.1261,1.1279,1.1302,1.132,1.13,1.1339,1.134,1.1332,1.1355,1.1353,1.1379,1.1349,1.135,1.135,0,1.0977,1.1005,1.105,1.1086,1.1098,1.112,1.1154,1.1178,1.1209,1.1222,1.1245,1.1259,1.129,1.1285,1.1329,1.1315,1.1332,1.1346,1.1347,1.1353,1.1347,1.1362,1.1387,1.1392,1.1356,1.1356,1.1355,0,1.098,1.103,1.1063,1.1078,1.1121,1.1137,1.1155,1.1186,1.1206,1.1235,1.1248,1.1281,1.1299,1.1324,1.1347,1.1341,1.1389,1.1385,1.1401,1.14,1.1411,1.141,1.144,1.142,1.142,1.142,1.142,0,1.1004,1.103,1.1065,1.1086,1.1117,1.114,1.117,1.119,1.1217,1.1242,1.1258,1.1282,1.131,1.1337,1.1355,1.1389,1.1396,1.1408,1.1413,1.1408,1.1406,1.142,1.1419,1.1421,1.142,1.142,1.142,0,1.1013,1.1037,1.1075,1.1113,1.1123,1.1144,1.1177,1.1198,1.1217,1.1249,1.1258,1.1289,1.1322,1.1347,1.139,1.1402,1.1439,1.1443,1.1428,1.1431,1.1445,1.1444,1.1486,1.1494,1.1467,1.1467,1.1467,0,1.1027,1.1048,1.1088,1.1106,1.1125,1.1154,1.1174,1.1198,1.1219,1.1256,1.1273,1.1307,1.1336,1.1388,1.1415,1.1448,1.1454,1.1466,1.1459,1.1453,1.1455,1.1454,1.1457,1.1467,1.1467,1.1468,1.1468,0,1.1049,1.1061,1.1089,1.1122,1.1146,1.1173,1.1201,1.1215,1.1244,1.1266,1.13,1.1323,1.1367,1.1401,1.1437,1.1456,1.1468,1.147,1.1475,1.1471,1.1462,1.1468,1.1432,1.1469,1.1469,1.1469,1.1469,1.1469,1.1062,1.1082,1.1114,1.1146,1.1169,1.1195,1.1217,1.1239,1.1268,1.1306,1.1318,1.1354,1.1385,1.1435,1.1455,1.1484,1.1484,1.1491,1.1494,1.1496,1.1496,1.1456,1.149,1.149,1.149,1.149,1.149,0,1.1087,1.1108,1.1137,1.1176,1.1201,1.1208,1.124,1.126,1.1291,1.132,1.1348,1.1388,1.1421,1.145,1.1485,1.1503,1.1509,1.1511,1.1511,1.1515,1.1493,1.1485,1.1506,1.1506,1.1506,1.1506,1.1506,1.1506,1.1103,1.1138,1.1153,1.1199,1.1221,1.1256,1.1273,1.1297,1.132,1.1364,1.1392,1.1411,1.144,1.1477,1.1509,1.1517,1.1529,1.1531,1.154,1.1519,1.1517,1.1515,1.1508,1.1533,1.1533,1.156,1.156,1.1561]}]]